Stations météo

réclame
Mon MeteoGroup
Calvi, France (7754): Température de l'air & dewpoint: 15.06.2018 19:00:00 - 21.06.2018 19:00:00 (CEST)Calvi, France (7754): Température de l'air 5cm: 15.06.2018 19:00:00 - 21.06.2018 19:00:00 (CEST)Calvi, France (7754): Vitesse du vent & gusts: 15.06.2018 19:00:00 - 21.06.2018 19:00:00 (CEST)Calvi, France (7754): Direction du vent: 15.06.2018 19:00:00 - 21.06.2018 19:00:00 (CEST)Calvi, France (7754): reduced air pressure: 15.06.2018 19:00:00 - 21.06.2018 19:00:00 (CEST)Calvi, France (7754): visibility: 15.06.2018 19:00:00 - 21.06.2018 19:00:00 (CEST)Calvi, France (7754): Quantités de précipitations: 15.06.2018 19:00:00 - 21.06.2018 19:00:00 (CEST)
Date & Time tt [°C] td [°C] tt 5cm [°C] ff [km/h] ff [knt] fx [km/h] fx [knt] dd ppp [hPa] vv [km] rr [mm]
21.06.2018 19:00:00 27,8 16,7 31,4 15 8 30 16 WSW 1014,4 31 0,0
21.06.2018 18:00:00 30,6 15,8 35,7 11 6 22 12 SW 1014,4 55 0,0
21.06.2018 17:00:00 30,9 16,1 32,6 11 6 22 12 WSW 1015,0 48 0,0
21.06.2018 16:00:00 29,9 14,8 33,2 10 5 25 14 SW 1015,5 53 0,0
21.06.2018 15:00:00 30,9 17,9 35,8 13 7 24 13 NNW 1015,3 46 0,0
21.06.2018 14:00:00 30,5 16,9 35,1 12 6 24 13 N 1015,5 54 0,0
21.06.2018 13:00:00 30,2 17,6 34,7 13 7 24 13 NW 1016,2 20 0,0
21.06.2018 12:00:00 28,5 19,7 32,8 17 9 24 13 NNE 1016,6 20 0,0
21.06.2018 11:00:00 27,5 19,3 30,5 16 9 21 11 N 1016,8 44 0,0
21.06.2018 10:00:00 26,7 18,3 29,4 14 7 18 10 N 1016,9 36 0,0
21.06.2018 09:00:00 26,9 17,9 28,6 6 4 12 6 NNE 1016,9 20 0,0
21.06.2018 08:00:00 25,3 18,0 22,5 0 0 9 5 N 1017,0 50 0,0
21.06.2018 07:00:00 21,1 17,3 18,8 6 4 12 7 SSE 1017,1 27 0,0
21.06.2018 06:00:00 18,7 16,3 18,0 8 4 11 6 S 1017,3 18 0,0
21.06.2018 05:00:00 18,5 15,9 18,1 4 2 8 4 S 1017,2 10 0,0
21.06.2018 04:00:00 19,7 16,5 18,9 5 3 12 6 S 1017,4 26 0,0
21.06.2018 03:00:00 19,5 16,5 19,2 8 4 13 7 S 1017,5 23 0,0
21.06.2018 02:00:00 19,6 16,6 19,1 8 4 11 6 S 1017,8 23 0,0
21.06.2018 01:00:00 20,1 16,9 19,9 0 0 10 6 N 1018,0 23 0,0
21.06.2018 00:00:00 21,2 17,4 20,7 9 5 11 6 SSE 1018,3 27 0,0
20.06.2018 23:00:00 22,3 17,9 21,9 5 3 8 4 SSE 1018,1 23 0,0
20.06.2018 22:00:00 23,7 17,9 23,1 2 1 8 4 NW 1017,6 37 0,0
20.06.2018 21:00:00 25,1 18,5 25,0 6 3 14 8 NE 1016,8 45 0,0
20.06.2018 20:00:00 27,0 18,8 29,7 11 6 16 9 NNE 1016,6 40 0,0
20.06.2018 19:00:00 27,3 18,9 30,5 13 7 27 14 NW 1016,3 20 0,0
20.06.2018 18:00:00 27,9 18,9 32,4 16 9 30 16 NNW 1016,1 20 0,0
20.06.2018 17:00:00 28,6 18,7 33,8 16 9 32 17 NW 1016,6 46 0,0
20.06.2018 16:00:00 28,6 18,4 34,4 16 9 33 18 NNW 1017,0 44 0,0
20.06.2018 15:00:00 29,9 16,3 34,4 22 12 35 19 N 1017,2 44 0,0
20.06.2018 14:00:00 30,7 15,2 34,0 23 13 42 23 N 1017,4 20 0,0
20.06.2018 13:00:00 31,0 14,6 34,9 25 13 40 22 N 1017,7 50 0,0
20.06.2018 12:00:00 30,4 14,5 34,6 23 13 34 18 N 1017,8 56 0,0
20.06.2018 11:00:00 30,0 14,1 32,7 20 11 34 19 N 1017,9 60 0,0
20.06.2018 10:00:00 30,0 12,0 31,9 19 10 27 15 NNE 1017,8 19 0,0
20.06.2018 09:00:00 27,4 14,8 27,7 3 1 9 5 NNW 1017,9 20 0,0
20.06.2018 08:00:00 24,8 15,7 21,7 3 1 9 5 NNW 1018,0 33 0,0
20.06.2018 07:00:00 20,5 14,8 17,9 8 4 11 6 S 1018,0 16 0,0
20.06.2018 06:00:00 18,3 13,6 17,6 5 3 15 8 S 1018,0 36 0,0
20.06.2018 05:00:00 19,3 13,7 18,1 7 4 11 6 S 1017,9 36 0,0
20.06.2018 04:00:00 19,3 13,7 18,4 10 6 16 9 S 1017,9 34 0,0
20.06.2018 03:00:00 19,0 13,6 18,3 10 6 15 8 S 1018,4 33 0,0
20.06.2018 02:00:00 19,4 13,6 18,9 6 4 14 8 SSE 1018,4 34 0,0
20.06.2018 01:00:00 19,5 13,9 19,2 10 5 15 8 SSW 1018,5 40 0,0
20.06.2018 00:00:00 21,5 14,2 20,9 10 5 16 8 S 1018,4 31 0,0
19.06.2018 23:00:00 21,9 14,5 21,6 10 5 14 8 S 1017,9 29 0,0
19.06.2018 22:00:00 24,0 13,5 23,2 9 5 17 9 S 1017,3 30 0,0
19.06.2018 21:00:00 27,6 12,8 27,1 15 8 28 15 NNE 1016,7 53 0,0
19.06.2018 20:00:00 29,3 13,5 31,1 19 10 32 18 NNE 1016,1 45 0,0
19.06.2018 19:00:00 30,4 13,2 33,6 19 11 39 21 NNE 1016,2 60 0,0
19.06.2018 18:00:00 31,3 12,1 35,0 26 14 44 24 NNE 1016,2 51 0,0
19.06.2018 17:00:00 32,1 13,3 36,4 31 17 44 24 N 1016,3 20 0,0
19.06.2018 16:00:00 32,3 15,3 37,0 30 16 52 28 N 1016,2 20 0,0
19.06.2018 15:00:00 32,6 15,6 36,4 31 17 43 23 N 1016,3 33 0,0
19.06.2018 14:00:00 32,4 13,1 35,9 27 15 43 23 NNE 1016,7 20 0,0
19.06.2018 13:00:00 33,0 12,1 36,5 27 15 41 22 NNE 1016,8 35 0,0
19.06.2018 12:00:00 32,5 12,2 35,5 25 14 41 22 NNE 1017,3 35 0,0
19.06.2018 11:00:00 31,8 12,6 33,4 22 12 31 17 NNE 1017,2 37 0,0
19.06.2018 10:00:00 29,9 15,2 31,3 2 1 9 5 WNW 1017,5 40 0,0
19.06.2018 09:00:00 27,8 14,8 26,4 3 2 9 5 SSW 1017,2 42 0,0
19.06.2018 08:00:00 24,2 17,0 20,9 7 4 16 8 SSW 1017,1 36 0,0
19.06.2018 07:00:00 20,0 14,8 17,3 11 6 17 9 S 1017,2 24 0,0
19.06.2018 06:00:00 17,6 14,3 17,0 9 5 13 7 S 1017,2 23 0,0
19.06.2018 05:00:00 17,5 14,6 17,0 6 3 12 7 S 1017,2 23 0,0
19.06.2018 04:00:00 18,1 15,2 17,5 3 1 11 6 SSW 1016,9 20 0,0
19.06.2018 03:00:00 18,2 15,8 17,9 6 3 13 7 SSW 1016,9 21 0,0
19.06.2018 02:00:00 19,1 16,7 18,8 9 5 11 6 SSW 1017,0 16 0,0
19.06.2018 01:00:00 19,6 17,7 18,9 9 5 12 7 SSW 1017,3 18 0,0
19.06.2018 00:00:00 19,5 17,8 19,0 7 4 10 6 SSW 1017,4 12 0,0
18.06.2018 23:00:00 20,6 18,5 20,1 8 4 11 6 SSW 1017,2 8 0,0
18.06.2018 22:00:00 21,7 18,9 21,5 5 3 11 6 E 1016,8 8 0,0
18.06.2018 21:00:00 23,3 19,0 23,1 5 3 13 7 NE 1015,9 20 0,0
18.06.2018 20:00:00 25,1 18,8 27,7 9 5 14 8 N 1015,4 32 0,0
18.06.2018 19:00:00 25,6 19,0 30,1 9 5 24 13 N 1014,9 20 0,0
18.06.2018 18:00:00 25,7 19,8 30,9 14 8 28 15 N 1015,0 20 0,0
18.06.2018 17:00:00 25,2 19,8 31,4 14 8 27 15 NNW 1015,2 20 0,0
18.06.2018 16:00:00 25,5 19,6 31,5 16 8 25 14 NW 1015,2 19 0,0
18.06.2018 15:00:00 25,8 20,8 30,2 14 8 27 15 NNW 1015,2 19 0,0
18.06.2018 14:00:00 25,2 20,0 28,4 13 7 30 16 NNW 1015,6 15 0,0
18.06.2018 13:00:00 24,7 20,0 29,6 14 8 28 15 NNW 1015,6 15 0,0
18.06.2018 12:00:00 24,7 19,5 29,0 16 8 34 19 NW 1015,8 16 0,0
18.06.2018 11:00:00 24,8 19,2 26,3 18 10 34 19 NNW 1015,3 18 0,0
18.06.2018 10:00:00 24,6 19,7 27,4 17 9 31 17 NNW 1015,0 18 0,0
18.06.2018 09:00:00 24,5 18,0 25,0 3 2 8 5 N 1014,8 20 0,0
18.06.2018 08:00:00 23,0 19,0 22,7 3 2 9 5 NNE 1015,0 17 0,0
18.06.2018 07:00:00 20,6 18,4 18,6 4 2 12 7 S 1014,5 17 0,0
18.06.2018 06:00:00 18,6 16,7 18,0 3 2 13 7 S 1014,3 17 0,0
18.06.2018 05:00:00 18,0 16,2 18,0 9 5 12 7 SSW 1014,0 19 0,0
18.06.2018 04:00:00 17,9 16,2 17,2 5 3 10 5 SSE 1013,8 15 0,0
18.06.2018 03:00:00 17,4 15,9 17,1 8 4 10 5 S 1014,1 17 0,0
18.06.2018 02:00:00 17,8 16,1 17,5 4 2 11 6 S 1014,7 16 0,0
18.06.2018 01:00:00 18,6 16,7 18,0 9 5 13 7 S 1014,8 19 0,0
18.06.2018 00:00:00 18,7 16,7 18,3 9 5 12 6 S 1015,2 18 0,0
17.06.2018 23:00:00 19,8 17,4 19,3 4 2 7 4 SSE 1014,9 15 0,0
17.06.2018 22:00:00 21,6 18,8 21,0 2 1 9 5 SE 1014,5 15 0,0
17.06.2018 21:00:00 22,5 18,5 22,3 8 4 14 8 ENE 1014,1 19 0,0
17.06.2018 20:00:00 24,9 17,1 27,6 8 4 16 8 N 1013,6 20 0,0
17.06.2018 19:00:00 26,3 16,8 31,2 9 5 18 10 N 1013,3 41 0,0
17.06.2018 18:00:00 27,0 15,4 32,1 9 5 22 12 NW 1013,4 20 0,0
17.06.2018 17:00:00 27,7 15,4 33,6 13 7 24 13 N 1013,6 60 0,0
17.06.2018 16:00:00 27,3 16,0 33,8 19 10 28 15 N 1013,9 60 0,0
17.06.2018 15:00:00 27,9 18,3 32,3 16 9 27 15 N 1013,9 47 0,0
17.06.2018 14:00:00 27,2 17,1 30,1 13 7 24 13 NNE 1014,3 19 0,0
17.06.2018 13:00:00 26,0 17,9 28,5 16 9 25 14 N 1014,8 42 0,0
17.06.2018 12:00:00 24,8 19,0 28,7 15 8 26 14 N 1014,8 20 0,0
17.06.2018 11:00:00 25,6 19,7 28,4 13 7 20 11 N 1014,3 20 0,0
17.06.2018 10:00:00 25,2 17,9 26,8 2 1 8 5 NW 1014,1 49 0,0
17.06.2018 09:00:00 23,8 18,0 25,9 2 1 7 4 W 1014,6 29 0,0
17.06.2018 08:00:00 22,7 17,6 21,0 4 2 9 5 NE 1014,4 19 0,0
17.06.2018 07:00:00 18,8 16,0 15,8 5 3 11 6 S 1013,8 36 0,0
17.06.2018 06:00:00 16,1 12,5 15,9 5 3 14 8 S 1013,7 36 0,0
17.06.2018 05:00:00 16,0 13,5 15,4 11 6 15 8 S 1013,8 33 0,0
17.06.2018 04:00:00 16,2 13,7 15,7 5 3 8 5 S 1013,6 28 0,0
17.06.2018 03:00:00 17,5 14,8 16,8 2 1 16 8 SSW 1013,5 34 0,0
17.06.2018 02:00:00 17,4 14,9 17,0 10 5 13 7 SSW 1013,6 34 0,0
17.06.2018 01:00:00 18,1 15,7 17,4 4 2 11 6 SW 1014,0 21 0,0
17.06.2018 00:00:00 18,7 16,3 18,1 8 5 11 6 SW 1013,8 25 0,0
16.06.2018 23:00:00 19,3 16,5 18,8 7 4 13 7 SSW 1013,6 30 0,0
16.06.2018 22:00:00 20,6 17,0 20,1 10 5 13 7 S 1013,4 34 0,0
16.06.2018 21:00:00 22,6 16,8 22,6 0 0 15 8 N 1012,5 17 0,0
16.06.2018 20:00:00 23,8 17,1 25,2 9 5 17 9 ENE 1012,5 57 0,0
16.06.2018 19:00:00 26,0 18,4 30,4 11 6 24 13 NNE 1012,0 30 0,0
16.06.2018 18:00:00 26,4 18,8 28,8 14 8 31 17 NNE 1011,8 50 0,0
16.06.2018 17:00:00 26,6 19,2 32,3 16 9 27 15 N 1012,0 60 0,0
16.06.2018 16:00:00 26,3 18,7 32,4 13 7 26 14 NNW 1012,1 58 0,0
16.06.2018 15:00:00 26,6 17,7 30,7 17 9 28 15 N 1012,3 19 0,0
16.06.2018 14:00:00 26,2 15,6 29,2 16 9 32 17 N 1012,2 60 0,0
16.06.2018 13:00:00 25,2 16,9 29,9 16 8 28 15 NNW 1012,4 60 0,0
16.06.2018 12:00:00 25,2 16,1 30,3 16 9 29 16 N 1012,6 60 0,0
16.06.2018 11:00:00 25,1 16,0 28,2 13 7 26 14 N 1012,7 60 0,0
16.06.2018 10:00:00 24,9 15,8 26,9 14 8 23 12 NNW 1012,5 60 0,0
16.06.2018 09:00:00 24,6 14,4 24,6 11 6 18 10 N 1012,4 60 0,0
16.06.2018 08:00:00 22,7 14,8 20,1 0 0 8 4 N 1012,1 56 0,0
16.06.2018 07:00:00 19,4 13,6 16,0 8 4 14 8 S 1012,1 49 0,0
16.06.2018 06:00:00 16,5 12,3 15,9 6 3 16 9 S 1012,1 60 0,0
16.06.2018 05:00:00 17,2 12,3 15,5 8 4 16 9 S 1012,0 60 0,0
16.06.2018 04:00:00 16,4 12,2 15,7 6 3 16 9 S 1012,2 60 0,0
16.06.2018 03:00:00 16,8 12,5 16,0 6 4 14 8 S 1012,5 60 0,0
16.06.2018 02:00:00 16,9 12,8 16,4 8 5 14 8 SSW 1012,4 60 0,0
16.06.2018 01:00:00 17,3 13,2 16,8 6 4 13 7 SSW 1012,5 60 0,0
16.06.2018 00:00:00 17,9 13,6 17,1 9 5 12 7 S 1012,4 60 0,0
15.06.2018 23:00:00 18,1 14,6 17,7 6 3 11 6 SSW 1012,3 60 0,0
15.06.2018 22:00:00 19,7 15,8 19,3 6 3 10 5 S 1012,1 60 0,0
15.06.2018 21:00:00 22,2 16,9 21,1 5 3 7 4 SSW 1011,6 60 0,0
15.06.2018 20:00:00 24,0 16,8 24,5 5 3 16 9 NE 1011,4 60 0,0
15.06.2018 19:00:00 24,4 17,4 27,1 10 6 20 11 N 1011,0 55 0,0

tt = Température de l'air
td = dewpoint
tt 5cm = Température de l'air 5cm
ff = Vitesse du vent
fx = gusts
dd = Direction du vent
ppp = reduced air pressure
vv = visibility
rr = Quantités de précipitations

stations d'obs. à proximité